Location: Cabeza Gorda
(40.0667°N, 4.9667°W)
Time: 18:34:53
(UTC+00:00)

Cosmos 1943 Rocket - Pass Details

Date: 15 January 2026
Orbit: 811 x 842 km, 71.0° (Epoch: 11 February)

Event Time Altitude Azimuth Distance (km) Brightness Sun altitude
Rises 05:16:23 0° 186° (S) 3,324 5.3 -27.1°
Reaches altitude 10° 05:18:52 10° 181° (S) 2,394 4.6 -26.6°
Maximum altitude 05:24:07 50° 107° (ESE) 1,033 3.0 -25.6°
Drops below altitude 10° 05:29:23 10° 34° (NE) 2,404 4.9 -24.6°
Sets 05:31:53 0° 29° (NNE) 3,340 5.6 -24.1°
